Regional Weather Roundup
Issued by NWS

Home | Current Version | Previous Version | Text Only | Print | Product List | Glossary Off
Versions: 1 2 3 4 5 6 7 8 9 10 11 12 13 14 15 16 17 18 19 20 21 22 23 24 25 26 27 28 29 30 31 32 33 34 35 36 37 38 39 40 41 42 43 44 45 46 47 48 49 50

000
ASUS43 KDTX 231610
RWRMI
MICHIGAN HOURLY REGIONAL WEATHER ROUNDUP
NATIONAL WEATHER SERVICE DETROIT/PONTIAC MI
1200 PM EDT MON APR 23 2018

NOTE: "FAIR" INDICATES FEW OR NO CLOUDS BELOW 12,000 FEET WITH NO
SIGNIFICANT WEATHER AND/OR OBSTRUCTION TO VISIBILITY.

MIZ047>049-052>055-059>063-066>070-074>076-081>083-231700-
SOUTHEAST LOWER MICHIGAN

CITY           SKY/WX    TMP DP  RH WIND       PRES   REMARKS
ADRIAN         FAIR      62  41  46 E8        30.22S
ALMA           FAIR      59  36  42 NE8       30.26S
ANN ARBOR      FAIR      63  41  44 E10       30.22F
BAD AXE        FAIR      63  28  27 E9G17     30.29S
CARO           FAIR      64  35  33 SE10      30.25F
DETROIT CITY   FAIR      61  39  44 E10       30.25F
DETROIT        PTSUNNY   63  39  41 VRB6      30.24F
FLINT          FAIR      63  39  41 NE10      30.24F
GROSSE ILE     FAIR      62  42  48 S3        30.23S
HILLSDALE      FAIR      61  36  39 SE9       30.20S
HOWELL         FAIR      63  36  36 E8        30.22F

CITY           SKY/WX    TMP DP  RH WIND       PRES   REMARKS
JACKSON        FAIR      63  38  39 E10       30.21F
LAMBERTVILLE   FAIR      60  41  50 E7        30.21S
LANSING        FAIR      64  39  39 NE9       30.23F
LAPEER         FAIR      62  36  37 SE8       30.26F
MASON          FAIR      65  32  29 E9        30.22F
MONROE         FAIR      57  37  47 E7        30.22S
MT. CLEMENS    PTSUNNY   60  40  48 E9        30.24F
PONTIAC        PTSUNNY   61  38  42 SE12      30.23F
PORT HOPE        N/A     43  35  73 E8        30.28F
PORT HURON     FAIR      63  36  36 SE6       30.26F
TRI CITIES     FAIR      56  36  47 NE12      30.27F
MIDLAND        FAIR      58  35  43 E5        30.26F
TROY           FAIR      60  34  37 E7        30.27S
SAGINAW HB     FAIR      59  36  41 N8        30.26S
$$
MIZ043>046-050>051-056>058-064>065-071>073-077>080-231700-
SOUTHWEST LOWER MICHIGAN

CITY           SKY/WX    TMP DP  RH WIND       PRES   REMARKS
BATTLE CREEK   FAIR      63  36  36 E13       30.19F
BENTON HARBOR  FAIR      65  33  30 E12       30.16F
BIG RAPIDS     FAIR      61  12  14 E6        30.24F
COLDWATER      FAIR      63  37  37 E9        30.19S
FREMONT        FAIR      63   7  11 E8        30.22F
HOLLAND        FAIR      61  31  32 NE9       30.20F
GRAND RAPIDS   PTSUNNY   62  34  35 E9        30.21F
IONIA          FAIR      60  34  37 NE8       30.22F
KALAMAZOO      FAIR      65  35  33 NE8       30.19F
LUDINGTON      FAIR      61  27  27 E5        30.24S
MARSHALL       FAIR      63  34  33 E8        30.20S
MOUNT PLEASANT FAIR      62  31  30 E7        30.25S
MUSKEGON       PTSUNNY   66  27  23 E10       30.21F
SOUTH HAVEN    FAIR      63  28  26 NE9       30.17F
$$
MIZ016>042-231700-
NORTHERN LOWER MICHIGAN

CITY           SKY/WX    TMP DP  RH WIND       PRES   REMARKS
ALPENA         FAIR      53  26  35 E6        30.31F
BEAVER ISLAND  FAIR      57  22  25 SW10      30.29F
BELLAIRE       FAIR      60  21  22 S5        30.28F
CADILLAC       FAIR      60  21  22 E7        30.25S
CHARLEVOIX     FAIR      47  27  45 NW6       30.32S
FRANKFORT      FAIR      62  26  25 E3        30.26F
GAYLORD        FAIR      52  15  23 S3        30.28F
GRAYLING       FAIR      58  17  20 E6        30.26F
HARBOR SPRINGS FAIR      58  23  26 W5        30.29F
HOUGHTON LAKE  FAIR      61  20  20 VRB6      30.27F
MANISTEE       FAIR      63  20  19 NE10      30.24F
OSCODA         FAIR      51  24  35 E6        30.30F
PELLSTON       FAIR      60  23  24 NW3       30.29F
ROGERS CITY    FAIR      56  26  31 SE8       30.32F
TRAVERSE CITY  PTSUNNY   53  27  36 N6        30.26F
$$
MIZ007>008-015-231700-
EASTERN UPPER MICHIGAN

CITY           SKY/WX    TMP DP  RH WIND       PRES   REMARKS
KINROSS        FAIR      57  24  28 SW8       30.30F
MACKINAC ISLAN   N/A    N/A N/A N/A MISG        N/A
NEWBERRY       FAIR      50  24  37 SW7       30.27F
S. S. MARIE    FAIR      53  26  35 SE6       30.30F
MUNISING         N/A     57  22  25 SW9       30.25F
$$
MIZ004>006-011>014-085-231700-
CENTRAL UPPER MICHIGAN

CITY           SKY/WX    TMP DP  RH WIND       PRES   REMARKS
MANISTIQUE     FAIR      49  26  40 S9        30.28F
ESCANABA       FAIR      52  24  33 SE8       30.27F
MENOMINEE      FAIR      56  31  38 SE8       30.28F
SAWYER-GWINN   SUNNY     52  21  30 SW10      30.25F
$$
MIZ001>003-009>011-084-231700-
WESTERN UPPER MICHIGAN

CITY           SKY/WX    TMP DP  RH WIND       PRES   REMARKS
IRON MOUNTAIN  FAIR      59  19  21 NW5       30.24F
HOUGHTON       FAIR      57  27  31 W9        30.20F
COPPER HARBOR    N/A    N/A N/A N/A MISG      30.19F
IRONWOOD       FAIR      55  32  41 W8        30.23F
$$

ABBREVIATIONS USED IN REMARKS
   TC - TEMPERATURE IN CELSIUS
  WCI - WIND CHILL INDEX
   HX - HEAT INDEX
  VSB - VISIBILITY




USA.gov is the U.S. government's official web portal to all federal, state and local government web resources and services.